Time,TemperatureF,DewpointF,PressureIn,WindDirection,WindDirectionDegrees,WindSpeedMPH,WindSpeedGustMPH,Humidity,HourlyPrecipIn,Conditions,Clouds,dailyrainin,SoftwareType,DateUTC
2013-05-11 00:01:00,60.6,59.5,29.85,ENE,74,2.0,2.0,96,0.14,,,0.95,Wunderground v.1.15,2013-05-11 04:01:00,
2013-05-11 00:02:00,60.6,59.5,29.85,ENE,74,2.0,2.0,96,0.14,,,0.95,Wunderground v.1.15,2013-05-11 04:02:00,
2013-05-11 00:03:00,60.5,59.4,29.85,ENE,74,2.0,2.0,96,0.14,,,0.95,Wunderground v.1.15,2013-05-11 04:03:00,
2013-05-11 00:07:00,60.5,59.4,29.85,NE,38,1.0,3.0,96,0.13,,,0.96,Wunderground v.1.15,2013-05-11 04:07:00,
2013-05-11 00:10:00,60.4,59.3,29.85,NE,38,2.0,2.0,96,0.15,,,0.97,Wunderground v.1.15,2013-05-11 04:10:00,
2013-05-11 00:16:00,60.4,59.3,29.85,NE,38,2.0,2.0,96,0.13,,,0.98,Wunderground v.1.15,2013-05-11 04:16:00,
2013-05-11 00:21:00,60.4,59.3,29.86,NE,38,1.0,1.0,96,0.15,,,0.99,Wunderground v.1.15,2013-05-11 04:21:00,
2013-05-11 00:26:00,60.4,59.3,29.87,NNE,32,0.0,1.0,96,0.15,,,1.01,Wunderground v.1.15,2013-05-11 04:26:00,
2013-05-11 00:32:00,60.4,59.3,29.87,West,259,2.0,4.0,96,0.13,,,1.02,Wunderground v.1.15,2013-05-11 04:32:00,
2013-05-11 00:37:00,60.4,59.3,29.87,SW,236,3.0,4.0,96,0.15,,,0.00,Wunderground v.1.15,2013-05-11 04:37:00,
2013-05-11 00:42:00,60.4,59.3,29.87,SW,236,2.0,3.0,96,0.12,,,0.01,Wunderground v.1.15,2013-05-11 04:42:00,
2013-05-11 00:48:00,60.4,59.3,29.87,SW,221,2.0,5.0,96,0.14,,,0.03,Wunderground v.1.15,2013-05-11 04:48:00,
2013-05-11 00:53:00,60.4,59.5,29.86,West,259,3.0,6.0,97,0.13,,,0.04,Wunderground v.1.15,2013-05-11 04:53:00,
2013-05-11 00:59:00,60.5,59.6,29.85,South,180,4.0,6.0,97,0.13,,,0.05,Wunderground v.1.15,2013-05-11 04:59:00,
2013-05-11 01:04:00,60.6,59.7,29.83,SSW,206,3.0,4.0,97,0.14,,,0.06,Wunderground v.1.15,2013-05-11 05:04:00,
2013-05-11 01:10:00,60.6,59.7,29.83,WSW,246,2.0,3.0,97,0.11,,,0.07,Wunderground v.1.15,2013-05-11 05:10:00,
2013-05-11 01:15:00,60.5,59.6,29.83,SW,229,3.0,5.0,97,0.12,,,0.08,Wunderground v.1.15,2013-05-11 05:15:00,
2013-05-11 01:21:00,60.5,59.6,29.82,South,173,3.0,4.0,97,0.12,,,0.09,Wunderground v.1.15,2013-05-11 05:21:00,
2013-05-11 01:27:00,60.4,59.5,29.82,SW,217,3.0,4.0,97,0.10,,,0.10,Wunderground v.1.15,2013-05-11 05:27:00,
2013-05-11 01:32:00,60.3,59.4,29.82,SSW,209,4.0,7.0,97,0.09,,,0.11,Wunderground v.1.15,2013-05-11 05:32:00,
2013-05-11 01:38:00,60.2,59.3,29.81,West,260,5.0,7.0,97,0.09,,,0.12,Wunderground v.1.15,2013-05-11 05:38:00,
2013-05-11 01:43:00,60.2,59.3,29.81,WSW,240,4.0,5.0,97,0.08,,,0.13,Wunderground v.1.15,2013-05-11 05:43:00,
2013-05-11 01:48:00,60.2,59.3,29.81,SW,214,4.0,8.0,97,0.08,,,0.13,Wunderground v.1.15,2013-05-11 05:48:00,
2013-05-11 01:54:00,60.1,59.2,29.81,SW,230,5.0,7.0,97,0.09,,,0.14,Wunderground v.1.15,2013-05-11 05:54:00,
2013-05-11 02:00:00,60.1,59.2,29.80,SSW,205,5.0,6.0,97,0.07,,,0.15,Wunderground v.1.15,2013-05-11 06:00:00,
2013-05-11 02:05:00,60.0,59.1,29.80,SW,223,5.0,8.0,97,0.07,,,0.15,Wunderground v.1.15,2013-05-11 06:05:00,
2013-05-11 02:11:00,60.0,59.1,29.80,SW,218,5.0,5.0,97,0.06,,,0.16,Wunderground v.1.15,2013-05-11 06:11:00,
2013-05-11 02:17:00,60.1,59.2,29.79,SW,221,5.0,8.0,97,0.06,,,0.17,Wunderground v.1.15,2013-05-11 06:17:00,
2013-05-11 02:22:00,60.1,59.2,29.79,SSW,199,5.0,7.0,97,0.06,,,0.17,Wunderground v.1.15,2013-05-11 06:22:00,
2013-05-11 02:27:00,60.0,59.1,29.79,SW,215,5.0,8.0,97,0.06,,,0.17,Wunderground v.1.15,2013-05-11 06:27:00,
2013-05-11 02:33:00,60.0,59.1,29.79,SSW,199,5.0,7.0,97,0.05,,,0.18,Wunderground v.1.15,2013-05-11 06:33:00,
2013-05-11 02:38:00,60.0,59.1,29.79,SW,215,5.0,7.0,97,0.05,,,0.18,Wunderground v.1.15,2013-05-11 06:38:00,
2013-05-11 02:44:00,60.0,59.1,29.79,SW,235,6.0,7.0,97,0.04,,,0.19,Wunderground v.1.15,2013-05-11 06:44:00,
2013-05-11 02:51:00,60.1,59.2,29.78,WSW,246,6.0,6.0,97,0.04,,,0.19,Wunderground v.1.15,2013-05-11 06:51:00,
2013-05-11 02:56:00,60.1,59.2,29.78,SW,216,6.0,7.0,97,0.04,,,0.19,Wunderground v.1.15,2013-05-11 06:56:00,
2013-05-11 03:01:00,60.1,59.2,29.78,SSW,213,6.0,6.0,97,0.00,,,0.20,Wunderground v.1.15,2013-05-11 07:01:00,
2013-05-11 03:07:00,60.1,59.2,29.79,WSW,254,6.0,9.0,97,0.00,,,0.20,Wunderground v.1.15,2013-05-11 07:07:00,
2013-05-11 03:13:00,60.2,59.6,29.79,WSW,254,8.0,15.0,98,0.00,,,0.20,Wunderground v.1.15,2013-05-11 07:13:00,
2013-05-11 03:18:00,60.3,59.7,29.79,WSW,241,8.0,15.0,98,0.00,,,0.20,Wunderground v.1.15,2013-05-11 07:18:00,
2013-05-11 03:24:00,60.4,59.8,29.79,WSW,244,8.0,10.0,98,0.00,,,0.20,Wunderground v.1.15,2013-05-11 07:24:00,
2013-05-11 03:29:00,60.5,59.9,29.79,SSW,205,8.0,10.0,98,0.00,,,0.20,Wunderground v.1.15,2013-05-11 07:29:00,
2013-05-11 03:35:00,60.6,60.0,29.78,WSW,255,8.0,10.0,98,0.00,,,0.20,Wunderground v.1.15,2013-05-11 07:35:00,
2013-05-11 03:41:00,60.7,60.1,29.78,SW,228,8.0,12.0,98,0.00,,,0.20,Wunderground v.1.15,2013-05-11 07:41:00,
2013-05-11 03:46:00,60.7,60.1,29.78,WSW,240,8.0,12.0,98,0.00,,,0.20,Wunderground v.1.15,2013-05-11 07:46:00,
2013-05-11 03:52:00,60.8,60.2,29.78,WSW,240,8.0,10.0,98,0.00,,,0.20,Wunderground v.1.15,2013-05-11 07:52:00,
2013-05-11 03:58:00,60.9,60.3,29.78,WSW,257,7.0,13.0,98,0.00,,,0.20,Wunderground v.1.15,2013-05-11 07:58:00,
2013-05-11 04:04:00,60.9,60.3,29.78,SSW,201,7.0,10.0,98,0.00,,,0.20,Wunderground v.1.15,2013-05-11 08:04:00,
2013-05-11 04:09:00,60.9,60.3,29.78,SW,226,8.0,12.0,98,0.00,,,0.21,Wunderground v.1.15,2013-05-11 08:09:00,
2013-05-11 04:14:00,60.9,60.3,29.78,WSW,254,8.0,13.0,98,0.00,,,0.21,Wunderground v.1.15,2013-05-11 08:14:00,
2013-05-11 04:19:00,61.0,60.4,29.78,WSW,258,8.0,13.0,98,0.00,,,0.21,Wunderground v.1.15,2013-05-11 08:19:00,
2013-05-11 04:24:00,61.0,60.4,29.78,WSW,250,8.0,10.0,98,0.00,,,0.21,Wunderground v.1.15,2013-05-11 08:24:00,
2013-05-11 04:30:00,60.9,60.3,29.78,WSW,251,8.0,8.0,98,0.00,,,0.21,Wunderground v.1.15,2013-05-11 08:30:00,
2013-05-11 04:36:00,60.9,60.3,29.78,WSW,252,8.0,10.0,98,0.00,,,0.21,Wunderground v.1.15,2013-05-11 08:36:00,
2013-05-11 04:42:00,61.0,60.4,29.78,SW,232,8.0,8.0,98,0.00,,,0.21,Wunderground v.1.15,2013-05-11 08:42:00,
2013-05-11 04:47:00,61.0,60.4,29.77,WSW,250,8.0,12.0,98,0.00,,,0.21,Wunderground v.1.15,2013-05-11 08:47:00,
2013-05-11 04:53:00,60.9,60.3,29.77,WSW,249,7.0,8.0,98,0.00,,,0.21,Wunderground v.1.15,2013-05-11 08:53:00,
2013-05-11 04:59:00,60.9,60.3,29.77,WSW,258,7.0,13.0,98,0.00,,,0.21,Wunderground v.1.15,2013-05-11 08:59:00,
2013-05-11 05:05:00,61.0,60.4,29.77,WSW,240,7.0,8.0,98,0.00,,,0.21,Wunderground v.1.15,2013-05-11 09:05:00,
2013-05-11 05:11:00,61.0,60.4,29.77,SSW,213,7.0,8.0,98,0.00,,,0.21,Wunderground v.1.15,2013-05-11 09:11:00,
2013-05-11 05:17:00,61.0,60.4,29.77,WSW,246,7.0,11.0,98,0.00,,,0.21,Wunderground v.1.15,2013-05-11 09:17:00,
2013-05-11 05:23:00,61.0,60.4,29.77,SW,231,8.0,8.0,98,0.00,,,0.21,Wunderground v.1.15,2013-05-11 09:23:00,
2013-05-11 05:28:00,61.0,60.4,29.77,WSW,251,8.0,9.0,98,0.00,,,0.21,Wunderground v.1.15,2013-05-11 09:28:00,
2013-05-11 05:34:00,61.0,60.4,29.76,SW,230,7.0,8.0,98,0.00,,,0.21,Wunderground v.1.15,2013-05-11 09:34:00,
2013-05-11 05:40:00,61.0,60.4,29.76,WSW,238,8.0,8.0,98,0.00,,,0.21,Wunderground v.1.15,2013-05-11 09:40:00,
2013-05-11 05:46:00,61.0,60.4,29.76,West,265,8.0,9.0,98,0.00,,,0.21,Wunderground v.1.15,2013-05-11 09:46:00,
2013-05-11 05:51:00,61.0,60.4,29.77,WSW,238,8.0,8.0,98,0.00,,,0.21,Wunderground v.1.15,2013-05-11 09:51:00,
2013-05-11 05:56:00,61.0,60.4,29.77,West,261,8.0,9.0,98,0.00,,,0.21,Wunderground v.1.15,2013-05-11 09:56:00,
2013-05-11 06:01:00,61.0,60.4,29.77,SW,222,7.0,10.0,98,0.00,,,0.21,Wunderground v.1.15,2013-05-11 10:01:00,
2013-05-11 06:07:00,61.0,60.4,29.77,West,262,8.0,11.0,98,0.00,,,0.21,Wunderground v.1.15,2013-05-11 10:07:00,
2013-05-11 06:13:00,61.0,60.4,29.77,West,265,9.0,14.0,98,0.00,,,0.21,Wunderground v.1.15,2013-05-11 10:13:00,
2013-05-11 06:18:00,61.0,60.4,29.77,WSW,250,9.0,14.0,98,0.00,,,0.21,Wunderground v.1.15,2013-05-11 10:18:00,
2013-05-11 06:24:00,61.0,60.4,29.77,West,264,8.0,14.0,98,0.00,,,0.21,Wunderground v.1.15,2013-05-11 10:24:00,
2013-05-11 06:30:00,61.0,60.4,29.77,SSW,207,8.0,8.0,98,0.00,,,0.21,Wunderground v.1.15,2013-05-11 10:30:00,
2013-05-11 06:35:00,61.0,60.4,29.77,West,259,8.0,11.0,98,0.00,,,0.21,Wunderground v.1.15,2013-05-11 10:35:00,
2013-05-11 06:41:00,61.0,60.4,29.77,West,263,8.0,8.0,98,0.00,,,0.21,Wunderground v.1.15,2013-05-11 10:41:00,
2013-05-11 06:46:00,61.0,60.4,29.77,West,264,8.0,11.0,98,0.00,,,0.21,Wunderground v.1.15,2013-05-11 10:46:00,
2013-05-11 06:52:00,61.1,60.5,29.77,West,259,8.0,8.0,98,0.00,,,0.21,Wunderground v.1.15,2013-05-11 10:52:00,
2013-05-11 06:57:00,61.1,60.5,29.77,WSW,252,8.0,13.0,98,0.00,,,0.21,Wunderground v.1.15,2013-05-11 10:57:00,
2013-05-11 07:03:00,61.1,60.5,29.77,WSW,257,8.0,10.0,98,0.00,,,0.21,Wunderground v.1.15,2013-05-11 11:03:00,
2013-05-11 07:09:00,61.1,60.5,29.77,WSW,254,8.0,11.0,98,0.00,,,0.21,Wunderground v.1.15,2013-05-11 11:09:00,
2013-05-11 07:15:00,61.2,60.6,29.77,WSW,252,8.0,10.0,98,0.00,,,0.21,Wunderground v.1.15,2013-05-11 11:15:00,
2013-05-11 07:20:00,61.2,60.6,29.77,SW,228,8.0,8.0,98,0.00,,,0.21,Wunderground v.1.15,2013-05-11 11:20:00,
2013-05-11 07:26:00,61.3,60.7,29.77,SSW,209,8.0,10.0,98,0.00,,,0.21,Wunderground v.1.15,2013-05-11 11:26:00,
2013-05-11 07:31:00,61.3,60.7,29.77,WSW,250,8.0,10.0,98,0.00,,,0.21,Wunderground v.1.15,2013-05-11 11:31:00,
2013-05-11 07:37:00,61.4,60.8,29.77,WSW,250,8.0,12.0,98,0.00,,,0.21,Wunderground v.1.15,2013-05-11 11:37:00,
2013-05-11 07:43:00,61.5,60.9,29.76,SW,225,8.0,9.0,98,0.00,,,0.21,Wunderground v.1.15,2013-05-11 11:43:00,
2013-05-11 07:49:00,61.5,60.9,29.76,SSW,210,7.0,9.0,98,0.00,,,0.21,Wunderground v.1.15,2013-05-11 11:49:00,
2013-05-11 07:55:00,61.6,61.0,29.76,WSW,242,7.0,12.0,98,0.00,,,0.21,Wunderground v.1.15,2013-05-11 11:55:00,
2013-05-11 08:00:00,61.7,61.1,29.76,SSW,209,7.0,7.0,98,0.00,,,0.21,Wunderground v.1.15,2013-05-11 12:00:00,
2013-05-11 08:06:00,61.7,61.1,29.76,WSW,240,8.0,10.0,98,0.00,,,0.21,Wunderground v.1.15,2013-05-11 12:06:00,
2013-05-11 08:12:00,61.8,61.2,29.76,WSW,248,8.0,8.0,98,0.00,,,0.21,Wunderground v.1.15,2013-05-11 12:12:00,
2013-05-11 08:18:00,61.8,61.2,29.77,West,267,8.0,11.0,98,0.00,,,0.21,Wunderground v.1.15,2013-05-11 12:18:00,
2013-05-11 08:23:00,61.8,61.2,29.77,West,273,8.0,13.0,98,0.00,,,0.21,Wunderground v.1.15,2013-05-11 12:23:00,
2013-05-11 08:29:00,61.8,61.2,29.76,SW,235,8.0,15.0,98,0.00,,,0.21,Wunderground v.1.15,2013-05-11 12:29:00,
2013-05-11 08:34:00,62.0,61.4,29.76,SW,217,7.0,8.0,98,0.00,,,0.21,Wunderground v.1.15,2013-05-11 12:34:00,
2013-05-11 08:40:00,62.1,61.5,29.76,West,260,7.0,7.0,98,0.00,,,0.21,Wunderground v.1.15,2013-05-11 12:40:00,
2013-05-11 08:46:00,62.1,61.5,29.76,WSW,240,7.0,8.0,98,0.00,,,0.21,Wunderground v.1.15,2013-05-11 12:46:00,
2013-05-11 08:51:00,62.2,61.6,29.76,West,263,7.0,9.0,98,0.00,,,0.21,Wunderground v.1.15,2013-05-11 12:51:00,
2013-05-11 08:56:00,62.1,61.5,29.76,WSW,247,8.0,10.0,98,0.00,,,0.21,Wunderground v.1.15,2013-05-11 12:56:00,
2013-05-11 09:01:00,62.2,61.6,29.76,WSW,250,8.0,11.0,98,0.00,,,0.21,Wunderground v.1.15,2013-05-11 13:01:00,
2013-05-11 09:07:00,62.3,61.7,29.76,SW,234,7.0,11.0,98,0.00,,,0.21,Wunderground v.1.15,2013-05-11 13:07:00,
2013-05-11 09:12:00,62.3,61.7,29.76,West,261,7.0,13.0,98,0.00,,,0.21,Wunderground v.1.15,2013-05-11 13:12:00,
2013-05-11 09:18:00,62.5,61.9,29.76,WSW,254,8.0,13.0,98,0.00,,,0.21,Wunderground v.1.15,2013-05-11 13:18:00,
2013-05-11 09:24:00,62.5,61.9,29.76,West,263,8.0,10.0,98,0.00,,,0.21,Wunderground v.1.15,2013-05-11 13:24:00,
2013-05-11 09:29:00,62.6,62.0,29.76,WSW,251,10.0,14.0,98,0.00,,,0.21,Wunderground v.1.15,2013-05-11 13:29:00,
2013-05-11 09:35:00,62.9,62.3,29.76,West,259,10.0,12.0,98,0.00,,,0.21,Wunderground v.1.15,2013-05-11 13:35:00,
2013-05-11 09:41:00,63.2,62.6,29.76,West,259,9.0,13.0,98,0.00,,,0.21,Wunderground v.1.15,2013-05-11 13:41:00,
2013-05-11 09:46:00,63.2,62.6,29.75,West,267,9.0,13.0,98,0.00,,,0.21,Wunderground v.1.15,2013-05-11 13:46:00,
2013-05-11 09:52:00,63.3,62.7,29.76,West,272,8.0,9.0,98,0.00,,,0.21,Wunderground v.1.15,2013-05-11 13:52:00,
2013-05-11 09:58:00,63.4,62.8,29.76,West,271,9.0,10.0,98,0.00,,,0.21,Wunderground v.1.15,2013-05-11 13:58:00,
2013-05-11 10:04:00,63.7,63.1,29.76,West,259,9.0,10.0,98,0.00,,,0.21,Wunderground v.1.15,2013-05-11 14:04:00,
2013-05-11 10:10:00,64.3,63.7,29.76,WSW,257,8.0,10.0,98,0.00,,,0.21,Wunderground v.1.15,2013-05-11 14:10:00,
2013-05-11 10:15:00,64.5,63.6,29.75,WSW,252,8.0,10.0,97,0.00,,,0.21,Wunderground v.1.15,2013-05-11 14:15:00,
2013-05-11 10:20:00,64.6,63.7,29.75,WNW,285,8.0,9.0,97,0.00,,,0.21,Wunderground v.1.15,2013-05-11 14:20:00,
2013-05-11 10:26:00,64.8,63.3,29.75,West,268,10.0,14.0,95,0.00,,,0.21,Wunderground v.1.15,2013-05-11 14:26:00,
2013-05-11 10:31:00,64.9,63.4,29.75,WNW,284,10.0,11.0,95,0.00,,,0.21,Wunderground v.1.15,2013-05-11 14:31:00,
2013-05-11 10:36:00,65.1,63.3,29.75,WSW,251,9.0,11.0,94,0.00,,,0.21,Wunderground v.1.15,2013-05-11 14:36:00,
2013-05-11 10:41:00,65.4,63.6,29.75,West,271,8.0,9.0,94,0.00,,,0.21,Wunderground v.1.15,2013-05-11 14:41:00,
2013-05-11 10:47:00,65.8,64.0,29.76,WNW,284,7.0,10.0,94,0.00,,,0.21,Wunderground v.1.15,2013-05-11 14:47:00,
2013-05-11 10:53:00,66.3,63.9,29.76,West,275,9.0,13.0,92,0.00,,,0.21,Wunderground v.1.15,2013-05-11 14:53:00,
2013-05-11 10:58:00,66.7,64.6,29.75,West,267,11.0,13.0,93,0.00,,,0.21,Wunderground v.1.15,2013-05-11 14:58:00,
2013-05-11 11:04:00,66.9,64.2,29.76,West,264,10.0,12.0,91,0.00,,,0.21,Wunderground v.1.15,2013-05-11 15:04:00,
2013-05-11 11:10:00,67.2,64.2,29.75,West,264,9.0,13.0,90,0.00,,,0.21,Wunderground v.1.15,2013-05-11 15:10:00,
2013-05-11 11:16:00,67.1,63.7,29.75,WSW,258,8.0,13.0,89,0.00,,,0.21,Wunderground v.1.15,2013-05-11 15:16:00,
2013-05-11 11:22:00,67.0,64.0,29.75,SW,228,8.0,9.0,90,0.00,,,0.21,Wunderground v.1.15,2013-05-11 15:22:00,
2013-05-11 11:27:00,67.0,64.0,29.75,West,267,8.0,11.0,90,0.00,,,0.21,Wunderground v.1.15,2013-05-11 15:27:00,
2013-05-11 11:33:00,67.1,63.7,29.75,West,262,8.0,10.0,89,0.00,,,0.21,Wunderground v.1.15,2013-05-11 15:33:00,
2013-05-11 11:39:00,67.3,64.3,29.75,West,261,7.0,10.0,90,0.00,,,0.21,Wunderground v.1.15,2013-05-11 15:39:00,
2013-05-11 11:45:00,67.4,64.0,29.74,West,277,7.0,11.0,89,0.00,,,0.21,Wunderground v.1.15,2013-05-11 15:45:00,
2013-05-11 11:51:00,67.5,63.8,29.74,West,268,7.0,9.0,88,0.00,,,0.21,Wunderground v.1.15,2013-05-11 15:51:00,
2013-05-11 11:56:00,67.4,63.7,29.74,West,268,6.0,9.0,88,0.00,,,0.21,Wunderground v.1.15,2013-05-11 15:56:00,
2013-05-11 12:02:00,67.2,63.5,29.74,West,263,5.0,6.0,88,0.00,,,0.21,Wunderground v.1.15,2013-05-11 16:02:00,
2013-05-11 12:08:00,67.1,63.7,29.74,WSW,252,4.0,6.0,89,0.00,,,0.21,Wunderground v.1.15,2013-05-11 16:08:00,
2013-05-11 12:14:00,67.0,63.6,29.74,WSW,241,4.0,4.0,89,0.00,,,0.21,Wunderground v.1.15,2013-05-11 16:14:00,
2013-05-11 12:20:00,66.8,63.8,29.74,SW,225,4.0,4.0,90,0.00,,,0.21,Wunderground v.1.15,2013-05-11 16:20:00,
2013-05-11 12:25:00,66.6,63.9,29.74,WSW,246,4.0,4.0,91,0.00,,,0.21,Wunderground v.1.15,2013-05-11 16:25:00,
2013-05-11 12:30:00,66.4,64.0,29.73,West,260,4.0,4.0,92,0.00,,,0.22,Wunderground v.1.15,2013-05-11 16:30:00,
2013-05-11 12:36:00,66.3,63.9,29.74,West,261,4.0,5.0,92,0.00,,,0.22,Wunderground v.1.15,2013-05-11 16:36:00,
2013-05-11 12:41:00,66.3,63.9,29.74,West,263,4.0,4.0,92,0.00,,,0.22,Wunderground v.1.15,2013-05-11 16:41:00,
2013-05-11 12:46:00,66.1,63.7,29.73,West,267,4.0,4.0,92,0.00,,,0.22,Wunderground v.1.15,2013-05-11 16:46:00,
2013-05-11 12:52:00,66.1,64.0,29.73,WSW,257,3.0,3.0,93,0.00,,,0.22,Wunderground v.1.15,2013-05-11 16:52:00,
2013-05-11 12:58:00,66.0,63.9,29.74,West,269,3.0,5.0,93,0.00,,,0.22,Wunderground v.1.15,2013-05-11 16:58:00,
2013-05-11 13:04:00,66.0,63.9,29.73,West,275,4.0,4.0,93,0.00,,,0.22,Wunderground v.1.15,2013-05-11 17:04:00,
2013-05-11 13:10:00,65.9,63.8,29.73,WSW,252,4.0,5.0,93,0.00,,,0.22,Wunderground v.1.15,2013-05-11 17:10:00,
2013-05-11 13:15:00,65.9,63.8,29.73,West,275,5.0,7.0,93,0.00,,,0.23,Wunderground v.1.15,2013-05-11 17:15:00,
2013-05-11 13:21:00,65.9,63.8,29.73,West,280,5.0,6.0,93,0.00,,,0.23,Wunderground v.1.15,2013-05-11 17:21:00,
2013-05-11 13:27:00,65.8,63.7,29.73,West,266,4.0,6.0,93,0.00,,,0.23,Wunderground v.1.15,2013-05-11 17:27:00,
2013-05-11 13:32:00,65.7,63.6,29.73,WNW,296,3.0,6.0,93,0.00,,,0.23,Wunderground v.1.15,2013-05-11 17:32:00,
2013-05-11 13:38:00,65.6,63.5,29.73,WNW,283,5.0,7.0,93,0.00,,,0.24,Wunderground v.1.15,2013-05-11 17:38:00,
2013-05-11 13:44:00,65.6,63.5,29.73,West,275,6.0,6.0,93,0.00,,,0.24,Wunderground v.1.15,2013-05-11 17:44:00,
2013-05-11 13:51:00,65.6,63.5,29.73,West,267,5.0,5.0,93,0.00,,,0.24,Wunderground v.1.15,2013-05-11 17:51:00,
2013-05-11 13:56:00,65.4,63.3,29.73,West,259,5.0,6.0,93,0.00,,,0.24,Wunderground v.1.15,2013-05-11 17:56:00,
2013-05-11 14:01:00,65.4,63.3,29.73,NNW,327,3.0,6.0,93,0.00,,,0.24,Wunderground v.1.15,2013-05-11 18:01:00,
2013-05-11 14:07:00,64.7,62.0,29.72,West,272,3.0,6.0,91,0.00,,,0.25,Wunderground v.1.15,2013-05-11 18:07:00,
2013-05-11 14:13:00,64.5,61.8,29.72,West,268,3.0,3.0,91,0.00,,,0.25,Wunderground v.1.15,2013-05-11 18:13:00,
2013-05-11 14:18:00,64.3,61.9,29.72,SW,235,2.0,5.0,92,0.00,,,0.25,Wunderground v.1.15,2013-05-11 18:18:00,
2013-05-11 14:23:00,64.4,62.6,29.71,SSW,209,3.0,7.0,94,0.00,,,0.25,Wunderground v.1.15,2013-05-11 18:23:00,
2013-05-11 14:29:00,64.7,62.9,29.70,SW,221,5.0,11.0,94,0.00,,,0.26,Wunderground v.1.15,2013-05-11 18:29:00,
2013-05-11 14:35:00,65.4,63.9,29.70,WSW,258,5.0,6.0,95,0.00,,,0.26,Wunderground v.1.15,2013-05-11 18:35:00,
2013-05-11 14:40:00,66.1,64.6,29.70,WSW,251,5.0,5.0,95,0.00,,,0.26,Wunderground v.1.15,2013-05-11 18:40:00,
2013-05-11 14:45:00,67.0,65.8,29.70,West,265,5.0,8.0,96,0.00,,,0.26,Wunderground v.1.15,2013-05-11 18:45:00,
2013-05-11 14:51:00,67.3,65.2,29.70,WNW,284,6.0,7.0,93,0.00,,,0.26,Wunderground v.1.15,2013-05-11 18:51:00,
2013-05-11 14:56:00,67.6,64.6,29.70,West,273,8.0,10.0,90,0.00,,,0.27,Wunderground v.1.15,2013-05-11 18:56:00,
2013-05-11 15:01:00,67.9,64.9,29.71,West,263,8.0,8.0,90,0.00,,,0.27,Wunderground v.1.15,2013-05-11 19:01:00,
2013-05-11 15:07:00,68.0,64.6,29.70,WSW,254,7.0,9.0,89,0.00,,,0.27,Wunderground v.1.15,2013-05-11 19:07:00,
2013-05-11 15:12:00,68.1,64.7,29.70,West,281,7.0,7.0,89,0.00,,,0.27,Wunderground v.1.15,2013-05-11 19:12:00,
2013-05-11 15:18:00,68.8,65.7,29.70,West,261,6.0,9.0,90,0.00,,,0.28,Wunderground v.1.15,2013-05-11 19:18:00,
2013-05-11 15:23:00,69.0,65.3,29.69,WSW,257,6.0,8.0,88,0.00,,,0.28,Wunderground v.1.15,2013-05-11 19:23:00,
2013-05-11 15:29:00,70.1,66.0,29.69,West,274,7.0,9.0,87,0.00,,,0.28,Wunderground v.1.15,2013-05-11 19:29:00,
2013-05-11 15:34:00,70.5,66.1,29.69,West,269,7.0,8.0,86,0.00,,,0.28,Wunderground v.1.15,2013-05-11 19:34:00,
2013-05-11 15:40:00,70.3,65.6,29.69,West,259,7.0,7.0,85,0.00,,,0.28,Wunderground v.1.15,2013-05-11 19:40:00,
2013-05-11 15:45:00,69.9,64.8,29.69,WSW,255,7.0,8.0,84,0.00,,,0.28,Wunderground v.1.15,2013-05-11 19:45:00,
2013-05-11 15:50:00,69.4,64.7,29.69,West,269,6.0,7.0,85,0.00,,,0.28,Wunderground v.1.15,2013-05-11 19:50:00,
2013-05-11 15:56:00,69.0,64.3,29.69,WSW,248,6.0,8.0,85,0.00,,,0.29,Wunderground v.1.15,2013-05-11 19:56:00,
2013-05-11 16:01:00,68.8,64.4,29.68,West,266,6.0,6.0,86,0.00,,,0.29,Wunderground v.1.15,2013-05-11 20:01:00,
2013-05-11 16:07:00,68.8,64.8,29.68,West,266,4.0,6.0,87,0.00,,,0.29,Wunderground v.1.15,2013-05-11 20:07:00,
2013-05-11 16:13:00,68.8,64.4,29.68,WSW,255,4.0,5.0,86,0.00,,,0.29,Wunderground v.1.15,2013-05-11 20:13:00,
2013-05-11 16:18:00,68.7,64.3,29.69,West,263,5.0,8.0,86,0.00,,,0.29,Wunderground v.1.15,2013-05-11 20:18:00,
2013-05-11 16:23:00,68.7,64.3,29.69,WSW,253,5.0,5.0,86,0.00,,,0.29,Wunderground v.1.15,2013-05-11 20:23:00,
2013-05-11 16:28:00,68.7,64.3,29.69,WSW,257,3.0,5.0,86,0.00,,,0.29,Wunderground v.1.15,2013-05-11 20:28:00,
2013-05-11 16:34:00,68.6,64.2,29.69,WSW,248,3.0,4.0,86,0.00,,,0.30,Wunderground v.1.15,2013-05-11 20:34:00,
2013-05-11 16:40:00,68.6,64.6,29.69,West,268,3.0,3.0,87,0.00,,,0.30,Wunderground v.1.15,2013-05-11 20:40:00,
2013-05-11 16:46:00,68.5,64.5,29.69,West,269,3.0,4.0,87,0.00,,,0.30,Wunderground v.1.15,2013-05-11 20:46:00,
2013-05-11 16:51:00,68.4,64.0,29.69,West,279,3.0,4.0,86,0.00,,,0.30,Wunderground v.1.15,2013-05-11 20:51:00,
2013-05-11 16:56:00,68.3,64.3,29.70,West,278,4.0,5.0,87,0.00,,,0.30,Wunderground v.1.15,2013-05-11 20:56:00,
2013-05-11 17:02:00,68.1,64.1,29.70,West,275,5.0,5.0,87,0.00,,,0.30,Wunderground v.1.15,2013-05-11 21:02:00,
2013-05-11 17:07:00,67.9,63.9,29.69,West,279,5.0,6.0,87,0.00,,,0.30,Wunderground v.1.15,2013-05-11 21:07:00,
2013-05-11 17:13:00,67.5,63.2,29.69,West,275,6.0,7.0,86,0.00,,,0.30,Wunderground v.1.15,2013-05-11 21:13:00,
2013-05-11 17:19:00,67.2,63.2,29.69,West,264,7.0,8.0,87,0.00,,,0.30,Wunderground v.1.15,2013-05-11 21:19:00,
2013-05-11 17:25:00,66.9,62.9,29.69,West,259,7.0,7.0,87,0.00,,,0.30,Wunderground v.1.15,2013-05-11 21:25:00,
2013-05-11 17:30:00,66.7,62.7,29.70,West,272,6.0,8.0,87,0.00,,,0.30,Wunderground v.1.15,2013-05-11 21:30:00,
2013-05-11 17:35:00,66.6,62.9,29.70,West,276,6.0,8.0,88,0.00,,,0.31,Wunderground v.1.15,2013-05-11 21:35:00,
2013-05-11 17:41:00,66.7,63.0,29.70,WNW,295,6.0,6.0,88,0.00,,,0.31,Wunderground v.1.15,2013-05-11 21:41:00,
2013-05-11 17:47:00,67.0,63.3,29.70,WNW,286,5.0,6.0,88,0.00,,,0.31,Wunderground v.1.15,2013-05-11 21:47:00,
2013-05-11 17:52:00,67.3,63.9,29.70,NW,306,5.0,5.0,89,0.00,,,0.31,Wunderground v.1.15,2013-05-11 21:52:00,
2013-05-11 17:57:00,67.6,63.9,29.70,NW,311,6.0,7.0,88,0.00,,,0.31,Wunderground v.1.15,2013-05-11 21:57:00,
2013-05-11 18:02:00,67.8,63.8,29.71,NW,321,6.0,9.0,87,0.00,,,0.31,Wunderground v.1.15,2013-05-11 22:02:00,
2013-05-11 18:07:00,67.4,62.7,29.70,NW,314,6.0,9.0,85,0.00,,,0.31,Wunderground v.1.15,2013-05-11 22:07:00,
2013-05-11 18:13:00,67.2,62.5,29.70,NW,313,4.0,5.0,85,0.00,,,0.31,Wunderground v.1.15,2013-05-11 22:13:00,
2013-05-11 18:19:00,67.1,61.8,29.70,NW,323,3.0,5.0,83,0.00,,,0.31,Wunderground v.1.15,2013-05-11 22:19:00,
2013-05-11 18:25:00,67.1,62.1,29.69,NW,323,2.0,3.0,84,0.00,,,0.31,Wunderground v.1.15,2013-05-11 22:25:00,
2013-05-11 18:30:00,67.0,61.7,29.70,NW,315,1.0,2.0,83,0.00,,,0.31,Wunderground v.1.15,2013-05-11 22:30:00,
2013-05-11 18:36:00,67.0,62.0,29.70,WNW,287,2.0,4.0,84,0.00,,,0.31,Wunderground v.1.15,2013-05-11 22:36:00,
2013-05-11 18:42:00,67.1,61.8,29.70,West,273,2.0,4.0,83,0.00,,,0.32,Wunderground v.1.15,2013-05-11 22:42:00,
2013-05-11 18:47:00,67.2,61.5,29.71,West,274,2.0,5.0,82,0.00,,,0.32,Wunderground v.1.15,2013-05-11 22:47:00,
2013-05-11 18:52:00,67.2,61.9,29.71,West,269,3.0,4.0,83,0.00,,,0.32,Wunderground v.1.15,2013-05-11 22:52:00,
2013-05-11 18:57:00,67.0,61.3,29.71,West,269,3.0,4.0,82,0.00,,,0.32,Wunderground v.1.15,2013-05-11 22:57:00,
2013-05-11 19:03:00,66.9,61.2,29.71,West,269,2.0,3.0,82,0.00,,,0.32,Wunderground v.1.15,2013-05-11 23:03:00,
2013-05-11 19:09:00,66.7,60.7,29.70,West,269,3.0,3.0,81,0.00,,,0.32,Wunderground v.1.15,2013-05-11 23:09:00,
2013-05-11 19:15:00,66.6,60.6,29.70,West,269,2.0,3.0,81,0.00,,,0.32,Wunderground v.1.15,2013-05-11 23:15:00,
2013-05-11 19:20:00,66.5,60.5,29.70,West,269,2.0,3.0,81,0.00,,,0.32,Wunderground v.1.15,2013-05-11 23:20:00,
2013-05-11 19:26:00,66.3,60.3,29.71,West,269,2.0,3.0,81,0.00,,,0.32,Wunderground v.1.15,2013-05-11 23:26:00,
2013-05-11 19:31:00,66.2,60.5,29.71,West,269,2.0,2.0,82,0.00,,,0.32,Wunderground v.1.15,2013-05-11 23:31:00,
2013-05-11 19:36:00,66.1,60.4,29.70,West,269,2.0,2.0,82,0.00,,,0.32,Wunderground v.1.15,2013-05-11 23:36:00,
2013-05-11 19:42:00,65.9,60.6,29.70,West,269,1.0,2.0,83,0.00,,,0.32,Wunderground v.1.15,2013-05-11 23:42:00,
2013-05-11 19:47:00,65.7,60.4,29.70,West,269,1.0,2.0,83,0.00,,,0.32,Wunderground v.1.15,2013-05-11 23:47:00,
2013-05-11 19:52:00,65.5,60.5,29.70,West,269,1.0,1.0,84,0.00,,,0.32,Wunderground v.1.15,2013-05-11 23:52:00,
2013-05-11 19:58:00,65.3,60.7,29.70,West,269,1.0,2.0,85,0.00,,,0.32,Wunderground v.1.15,2013-05-11 23:58:00,
2013-05-11 20:03:00,65.1,60.1,29.70,West,269,1.0,1.0,84,0.00,,,0.32,Wunderground v.1.15,2013-05-12 00:03:00,
2013-05-11 20:09:00,65.0,60.4,29.70,West,269,1.0,1.0,85,0.00,,,0.32,Wunderground v.1.15,2013-05-12 00:09:00,
2013-05-11 20:14:00,64.7,60.1,29.71,West,269,0.0,1.0,85,0.00,,,0.32,Wunderground v.1.15,2013-05-12 00:14:00,
2013-05-11 20:19:00,64.3,60.0,29.70,West,269,0.0,1.0,86,0.00,,,0.32,Wunderground v.1.15,2013-05-12 00:19:00,
2013-05-11 20:25:00,64.1,60.5,29.71,West,269,0.0,2.0,88,0.00,,,0.32,Wunderground v.1.15,2013-05-12 00:25:00,
2013-05-11 20:31:00,63.9,61.2,29.71,West,269,1.0,2.0,91,0.00,,,0.32,Wunderground v.1.15,2013-05-12 00:31:00,
2013-05-11 20:37:00,63.6,61.2,29.71,West,269,1.0,2.0,92,0.00,,,0.33,Wunderground v.1.15,2013-05-12 00:37:00,
2013-05-11 20:42:00,63.5,61.1,29.71,West,269,1.0,2.0,92,0.00,,,0.33,Wunderground v.1.15,2013-05-12 00:42:00,
2013-05-11 20:48:00,63.2,61.1,29.71,West,269,1.0,2.0,93,0.00,,,0.33,Wunderground v.1.15,2013-05-12 00:48:00,
2013-05-11 20:54:00,63.0,60.9,29.71,West,269,0.0,1.0,93,0.00,,,0.33,Wunderground v.1.15,2013-05-12 00:54:00,
2013-05-11 20:59:00,62.9,60.8,29.71,West,269,0.0,1.0,93,0.00,,,0.33,Wunderground v.1.15,2013-05-12 00:59:00,
2013-05-11 21:04:00,62.8,60.7,29.71,West,269,0.0,0.0,93,0.00,,,0.33,Wunderground v.1.15,2013-05-12 01:04:00,
2013-05-11 21:10:00,62.8,60.7,29.71,West,269,0.0,0.0,93,0.00,,,0.33,Wunderground v.1.15,2013-05-12 01:10:00,
2013-05-11 21:16:00,62.8,60.7,29.71,West,269,1.0,2.0,93,0.00,,,0.33,Wunderground v.1.15,2013-05-12 01:16:00,
2013-05-11 21:21:00,62.8,60.7,29.71,West,269,1.0,1.0,93,0.00,,,0.33,Wunderground v.1.15,2013-05-12 01:21:00,
2013-05-11 21:27:00,62.7,60.6,29.71,West,269,0.0,1.0,93,0.00,,,0.33,Wunderground v.1.15,2013-05-12 01:27:00,
2013-05-11 21:33:00,62.6,60.2,29.71,West,269,0.0,0.0,92,0.00,,,0.33,Wunderground v.1.15,2013-05-12 01:33:00,
2013-05-11 21:38:00,62.5,60.1,29.72,West,269,0.0,1.0,92,0.00,,,0.33,Wunderground v.1.15,2013-05-12 01:38:00,
2013-05-11 21:44:00,62.5,59.8,29.72,West,269,0.0,1.0,91,0.00,,,0.33,Wunderground v.1.15,2013-05-12 01:44:00,
2013-05-11 21:50:00,62.3,59.3,29.72,West,269,1.0,1.0,90,0.00,,,0.33,Wunderground v.1.15,2013-05-12 01:50:00,
2013-05-11 21:56:00,62.4,59.4,29.72,West,269,1.0,2.0,90,0.00,,,0.33,Wunderground v.1.15,2013-05-12 01:56:00,
2013-05-11 22:01:00,62.2,59.5,29.72,West,269,1.0,1.0,91,0.00,,,0.33,Wunderground v.1.15,2013-05-12 02:01:00,
2013-05-11 22:07:00,62.1,59.7,29.72,West,269,1.0,1.0,92,0.00,,,0.33,Wunderground v.1.15,2013-05-12 02:07:00,
2013-05-11 22:13:00,62.1,59.7,29.72,West,269,0.0,1.0,92,0.00,,,0.33,Wunderground v.1.15,2013-05-12 02:13:00,
2013-05-11 22:18:00,62.1,59.7,29.72,West,269,0.0,1.0,92,0.00,,,0.33,Wunderground v.1.15,2013-05-12 02:18:00,
2013-05-11 22:23:00,62.0,59.6,29.72,West,269,0.0,0.0,92,0.00,,,0.33,Wunderground v.1.15,2013-05-12 02:23:00,
2013-05-11 22:29:00,62.0,59.6,29.73,West,269,0.0,0.0,92,0.00,,,0.33,Wunderground v.1.15,2013-05-12 02:29:00,
2013-05-11 22:34:00,62.0,60.0,29.73,West,269,0.0,0.0,93,0.00,,,0.33,Wunderground v.1.15,2013-05-12 02:34:00,
2013-05-11 22:40:00,62.0,60.0,29.74,NNW,340,1.0,4.0,93,0.00,,,0.33,Wunderground v.1.15,2013-05-12 02:40:00,
2013-05-11 22:46:00,61.9,59.5,29.73,NE,49,1.0,4.0,92,0.00,,,0.33,Wunderground v.1.15,2013-05-12 02:46:00,
2013-05-11 22:51:00,61.9,59.9,29.73,NE,37,1.0,2.0,93,0.00,,,0.33,Wunderground v.1.15,2013-05-12 02:51:00,
2013-05-11 22:57:00,61.9,59.5,29.72,NNE,30,2.0,4.0,92,0.00,,,0.33,Wunderground v.1.15,2013-05-12 02:57:00,
2013-05-11 23:03:00,61.8,59.5,29.73,NNE,22,4.0,6.0,92,0.00,,,0.33,Wunderground v.1.15,2013-05-12 03:03:00,
2013-05-11 23:08:00,61.6,59.3,29.72,NE,50,4.0,6.0,92,0.00,,,0.33,Wunderground v.1.15,2013-05-12 03:08:00,
2013-05-11 23:13:00,61.5,59.2,29.72,NE,38,4.0,5.0,92,0.00,,,0.33,Wunderground v.1.15,2013-05-12 03:13:00,
2013-05-11 23:19:00,61.3,59.0,29.73,NNE,33,4.0,5.0,92,0.00,,,0.34,Wunderground v.1.15,2013-05-12 03:19:00,
2013-05-11 23:25:00,61.0,58.4,29.72,NE,40,4.0,4.0,91,0.00,,,0.34,Wunderground v.1.15,2013-05-12 03:25:00,
2013-05-11 23:30:00,60.8,58.2,29.72,NE,42,4.0,4.0,91,0.00,,,0.34,Wunderground v.1.15,2013-05-12 03:30:00,
2013-05-11 23:35:00,60.6,57.7,29.72,NE,50,4.0,5.0,90,0.00,,,0.34,Wunderground v.1.15,2013-05-12 03:35:00,
2013-05-11 23:41:00,60.4,57.1,29.72,ENE,57,4.0,4.0,89,0.00,,,0.34,Wunderground v.1.15,2013-05-12 03:41:00,
2013-05-11 23:46:00,60.4,57.1,29.72,NE,54,4.0,4.0,89,0.00,,,0.34,Wunderground v.1.15,2013-05-12 03:46:00,
2013-05-11 23:51:00,60.2,56.9,29.72,NE,47,3.0,3.0,89,0.00,,,0.34,Wunderground v.1.15,2013-05-12 03:51:00,
2013-05-11 23:56:00,60.2,56.9,29.73,NE,44,3.0,4.0,89,0.00,,,0.34,Wunderground v.1.15,2013-05-12 03:56:00,